Location: Asni�res
(49.1337°N, 2.3555°E)
Time: 17:51:40
(UTC+00:00)

Cosmos 1535 Rocket - Pass Details

Date: 02 June 2022
Orbit: 949 x 1003 km, 83.0° (Epoch: 28 June)

Event Time Altitude Azimuth Distance (km) Brightness Sun altitude
Rises 02:49:03 0° 355° (N) 3,669 8.2 -8.2°
Reaches altitude 10° 02:51:44 10° 3° (N) 2,726 7.7 -7.9°
Maximum altitude 02:57:35 40° 72° (ENE) 1,410 6.0 -7.2°
Drops below altitude 10° 03:03:27 10° 141° (SE) 2,745 6.8 -6.6°
Sets 03:06:09 0° 148° (SSE) 3,696 7.4 -6.2°
